sat.trackr.live / text

‹ back to catalog

STARLINK-31458

NORAD 59501 · 2024-071T

PAYLOAD ACTIVE UNKNOWN

§ Identity

Operator
Country
US
Launch date
2024-04-13
Launch site
AFETR
Launch vehicle
Mass (kg)
RCS (m²)

Purposes: comms

External: N2YO · Heavens-Above · Gunter

§ Orbital elements

Epoch: 2026-09-21T10:23:24.464256Z

Period
94.27 min
Inclination
43.0020°
Eccentricity
0.0001277
Mean motion
15.27579020 rev/d
Perigee alt
482.2 km
Apogee alt
483.9 km
Semi-major
6,861.2 km
B*
2.3366e-5
RAAN
314.1469°
Arg perigee
274.3128°
Mean anomaly
85.7578°
Rev number
13,814

§ Raw data

STARLINK-314581 59501U 24071T   26264.43292204  .00000381  00000+0  23366-4 0  99952 59501  43.0020 314.1469 0001277 274.3128  85.7578 15.27579020138148

JSON: /api/v1/satellites/59501 · /tle

For live sub-satellite position, see the globe view (requires WebGL).

§ Visibility from observer

Set your observer location to see the next 7 days of passes ≥ 10°. The values pass through the URL so the page stays shareable.

No JS? Fill the form by hand. The geolocation button needs JavaScript.